STARLINK-32778, 62603

Orbit data source: Space-Track

STARLINK-32778, 62603 is a payload satellite owned by SpaceX/Seattle (US) in LEO that was launched on Mon, 13 Jan 2025 UTC via an FALCON 9 launch vehicle from the Air Force Eastern Test Range (AFETR). Payload-class satellites include a variety of spacecraft equipped with specific instruments for various scientific and technological missions. These include communications satellites like Starlink; space stations such as the ISS; scientific satellites like the Hubble; Earth observation satellites from companies like Planet Labs, Umbra, and HawkEye 360; GPS; miniature CubeSats for education and research; and military/defense satellites.

Loading next visibility...
Identifier
62603, 2025-008S
Orbit
LEO
Country
Flag of USUS
Related business
Manufacturer
SpaceX/Seattle
Mission
Operational Commercial Communications
Bus & Motor
STARLINK V2M, Unknown motor
Mass
730 kg wet, ~700 kg dry
Launch date (UTC)
2025-01-13 (1 year ago)
Launch vehicle
FALCON 9
Launch site
Air Force Eastern Test Range (AFETR)
Object type
Payload
Rocket body
Debris
Shape & HBR
Box + 2 Pan, 17.7 m
Radar Cross Section
33.884 m², Large (>1 m²)

Expand to show TLE details & history
Last TLE update: 21 hours ago

TLE from 21 hours ago
0 STARLINK-32778
1 62603U 25008S   26035.24331505  .00023610  00000-0  86445-3 0  9993
2 62603  42.9939 107.2859 0000750 264.8543  95.2222 15.27591637 60443
Epoch: 2026-02-04T05:50Z
TLE epoch observation values (Epoch: 2026-02-04T05:50:22.420Z)
Latitude
-0.00008°
Longitude
-114.72029°
Altitude
482.836 km
Speed
7.626 km/s
True Right ascension
07h 09m 08s
True Declination
0° 00' 00"
Sunlit
Object was in full shadow at epoch
Visualization orbit readout
Latitude
Unknown
Longitude
Unknown
Altitude
Unknown
Speed
Unknown
Apparent Right ascension
Unknown
Apparent Declination
Unknown
Sunlit
N/A
Visualization observer readout
Local Sidereal Time
04:39:28
Azimuth
Unknown
Elevation
Unknown
Doppler factor
Unknown
Orbital elements
Apogee altitude
485.475 km
Perigee altitude
484.446 km
Semi-major axis
6,863.097 km
Eccentricity
0.00008
Inclination
42.9939°
RAAN
107.2859°
Arg. of periapsis
264.8543°
True anomaly
95.23076°
Mean anomaly
95.2222°
Eccentric anomaly
95.22648°
Mean motion
3.81736 °/min
Orbital period
94.31 mins
BSTAR
0.00086445
Loading maneuver chart data...
Computing Atmospheric mass density...
Loading historical data...
Loading historical data...
Loading historical data...
Loading historical data...
Loading historical data...
Loading historical data...
Loading historical data...

Documentation

Showing up to 5 results
|